When you browse on this site, cookies collect data to enhance your experience and personalize the content and advertising you see.
Visit our Privacy Policy to learn more. By continuing to use the site, you agree to this use of cookies and data.

Météo par heure à Galkovichi

Ce jour, 16 Juillet, Jeudi

Heure Température Précipitation Vent Pression Humidité
00:00 +13°C° 0 mm 1 m/s 741 mmHg 83%
01:00 +13°C° 0 mm 1 m/s 741 mmHg 84%
02:00 +12°C° 0 mm 1 m/s 741 mmHg 85%
03:00 +12°C° 0 mm 1 m/s 741 mmHg 87%
04:00 +12°C° 0 mm 1 m/s 741 mmHg 89%
05:00 +11°C° 0 mm 0 m/s 741 mmHg 91%
06:00 +13°C° 0 mm 0 m/s 741 mmHg 86%
07:00 +16°C° 0 mm 1 m/s 741 mmHg 81%
08:00 +19°C° 0 mm 1 m/s 741 mmHg 76%
09:00 +21°C° 0.2 mm 1 m/s 741 mmHg 70%
10:00 +22°C° 0.2 mm 1 m/s 741 mmHg 65%
11:00 +23°C° 0.2 mm 1 m/s 741 mmHg 59%
12:00 +24°C° 0.1 mm 1 m/s 741 mmHg 57%
13:00 +24°C° 0.1 mm 1 m/s 740 mmHg 55%
14:00 +25°C° 0.1 mm 1 m/s 740 mmHg 53%
15:00 +24°C° 0.1 mm 1 m/s 740 mmHg 55%
16:00 +24°C° 0.1 mm 1 m/s 740 mmHg 57%
17:00 +24°C° 0.1 mm 1 m/s 740 mmHg 59%
18:00 +22°C° 0.1 mm 1 m/s 740 mmHg 66%
19:00 +20°C° 0.1 mm 2 m/s 740 mmHg 73%
20:00 +18°C° 0.1 mm 2 m/s 740 mmHg 79%
21:00 +17°C° 0 mm 2 m/s 740 mmHg 82%
22:00 +16°C° 0 mm 2 m/s 740 mmHg 84%
23:00 +15°C° 0 mm 2 m/s 740 mmHg 86%

Demain, 17 Juillet, Vendredi

Heure Température Précipitation Vent Pression Humidité
00:00 +15°C° 0.1 mm 2 m/s 740 mmHg 87%
01:00 +14°C° 0.1 mm 2 m/s 740 mmHg 89%
02:00 +14°C° 0.1 mm 2 m/s 740 mmHg 90%
03:00 +14°C° 0 mm 2 m/s 740 mmHg 90%
04:00 +14°C° 0 mm 2 m/s 740 mmHg 90%
05:00 +13°C° 0 mm 2 m/s 740 mmHg 90%
06:00 +15°C° 0 mm 2 m/s 741 mmHg 85%
07:00 +17°C° 0 mm 2 m/s 741 mmHg 81%
08:00 +19°C° 0 mm 2 m/s 742 mmHg 76%
09:00 +20°C° 0 mm 2 m/s 742 mmHg 71%
10:00 +21°C° 0 mm 3 m/s 742 mmHg 65%
11:00 +24°C° 0 mm 3 m/s 742 mmHg 60%
12:00 +24°C° 0.1 mm 3 m/s 742 mmHg 59%
13:00 +25°C° 0.1 mm 3 m/s 742 mmHg 57%
14:00 +25°C° 0.1 mm 3 m/s 742 mmHg 56%
15:00 +25°C° 0.1 mm 3 m/s 742 mmHg 58%
16:00 +25°C° 0.1 mm 3 m/s 742 mmHg 60%
17:00 +25°C° 0.1 mm 2 m/s 742 mmHg 63%
18:00 +23°C° 0 mm 2 m/s 742 mmHg 68%
19:00 +20°C° 0 mm 2 m/s 742 mmHg 73%
20:00 +19°C° 0 mm 2 m/s 742 mmHg 78%
21:00 +18°C° 0 mm 2 m/s 742 mmHg 81%
22:00 +17°C° 0 mm 3 m/s 743 mmHg 84%
23:00 +16°C° 0 mm 3 m/s 743 mmHg 87%

Après-demain, 18 Juillet, Samedi

Heure Température Précipitation Vent Pression Humidité
00:00 +14°C° 0 mm 3 m/s 743 mmHg 89%
01:00 +15°C° 0 mm 2 m/s 743 mmHg 90%
02:00 +14°C° 0 mm 2 m/s 743 mmHg 92%
03:00 +14°C° 0 mm 2 m/s 743 mmHg 93%
04:00 +14°C° 0 mm 2 m/s 743 mmHg 94%
05:00 +14°C° 0 mm 2 m/s 743 mmHg 95%
06:00 +16°C° 0 mm 3 m/s 744 mmHg 90%
07:00 +18°C° 0 mm 3 m/s 744 mmHg 85%
08:00 +20°C° 0 mm 3 m/s 744 mmHg 80%
09:00 +21°C° 0.1 mm 3 m/s 744 mmHg 76%
10:00 +22°C° 0.1 mm 3 m/s 744 mmHg 71%
11:00 +25°C° 0.1 mm 3 m/s 744 mmHg 66%
12:00 +25°C° 0.4 mm 3 m/s 744 mmHg 65%
13:00 +25°C° 0.4 mm 3 m/s 744 mmHg 64%
14:00 +26°C° 0.4 mm 3 m/s 744 mmHg 63%
15:00 +26°C° 0.2 mm 3 m/s 744 mmHg 64%
16:00 +26°C° 0.2 mm 3 m/s 744 mmHg 66%
17:00 +25°C° 0.2 mm 3 m/s 744 mmHg 67%
18:00 +24°C° 0.1 mm 3 m/s 744 mmHg 72%
19:00 +21°C° 0.1 mm 2 m/s 744 mmHg 77%
20:00 +20°C° 0.1 mm 2 m/s 744 mmHg 82%
21:00 +19°C° 0 mm 2 m/s 744 mmHg 85%
22:00 +18°C° 0 mm 2 m/s 744 mmHg 87%
23:00 +17°C° 0 mm 2 m/s 744 mmHg 89%

19 Juillet, Dimanche

Heure Température Précipitation Vent Pression Humidité
00:00 +16°C° 0 mm 2 m/s 744 mmHg 90%
01:00 +16°C° 0 mm 2 m/s 744 mmHg 90%
02:00 +15°C° 0 mm 2 m/s 744 mmHg 91%
03:00 +15°C° 0 mm 2 m/s 744 mmHg 91%
04:00 +15°C° 0 mm 2 m/s 744 mmHg 92%
05:00 +15°C° 0 mm 2 m/s 744 mmHg 92%
06:00 +16°C° 0 mm 2 m/s 744 mmHg 88%
07:00 +18°C° 0 mm 3 m/s 744 mmHg 84%
08:00 +19°C° 0 mm 3 m/s 744 mmHg 79%
09:00 +21°C° 0 mm 3 m/s 744 mmHg 74%
10:00 +22°C° 0 mm 3 m/s 744 mmHg 69%
11:00 +25°C° 0 mm 3 m/s 744 mmHg 64%
12:00 +25°C° 0 mm 3 m/s 744 mmHg 62%
13:00 +26°C° 0 mm 4 m/s 743 mmHg 59%
14:00 +26°C° 0 mm 4 m/s 743 mmHg 57%
15:00 +26°C° 0 mm 3 m/s 743 mmHg 58%
16:00 +26°C° 0 mm 3 m/s 743 mmHg 59%
17:00 +26°C° 0 mm 3 m/s 743 mmHg 61%
18:00 +24°C° 0 mm 3 m/s 743 mmHg 66%
19:00 +21°C° 0 mm 2 m/s 742 mmHg 71%
20:00 +20°C° 0 mm 2 m/s 742 mmHg 77%
21:00 +19°C° 0 mm 2 m/s 742 mmHg 78%
22:00 +18°C° 0 mm 2 m/s 742 mmHg 80%
23:00 +17°C° 0 mm 2 m/s 742 mmHg 82%

20 Juillet, Lundi

Heure Température Précipitation Vent Pression Humidité
00:00 +17°C° 0 mm 2 m/s 742 mmHg 83%
01:00 +16°C° 0 mm 2 m/s 742 mmHg 84%
02:00 +16°C° 0 mm 2 m/s 742 mmHg 85%
03:00 +15°C° 0 mm 2 m/s 742 mmHg 87%
04:00 +15°C° 0 mm 2 m/s 742 mmHg 88%
05:00 +15°C° 0 mm 2 m/s 741 mmHg 90%
06:00 +17°C° 0 mm 2 m/s 741 mmHg 85%
07:00 +18°C° 0 mm 2 m/s 741 mmHg 80%
08:00 +20°C° 0 mm 2 m/s 741 mmHg 75%
09:00 +21°C° 0.1 mm 2 m/s 741 mmHg 71%
10:00 +24°C° 0.1 mm 2 m/s 741 mmHg 67%
11:00 +25°C° 0.1 mm 2 m/s 741 mmHg 63%
12:00 +25°C° 0.2 mm 2 m/s 740 mmHg 62%
13:00 +25°C° 0.2 mm 2 m/s 740 mmHg 60%
14:00 +26°C° 0.2 mm 2 m/s 740 mmHg 59%
15:00 +26°C° 0 mm 2 m/s 740 mmHg 58%
16:00 +26°C° 0 mm 2 m/s 739 mmHg 58%
17:00 +26°C° 0 mm 2 m/s 739 mmHg 57%
18:00 +24°C° 0.1 mm 1 m/s 739 mmHg 63%
19:00 +22°C° 0.1 mm 1 m/s 739 mmHg 70%
20:00 +21°C° 0.1 mm 1 m/s 739 mmHg 76%
21:00 +20°C° 0 mm 1 m/s 739 mmHg 79%
22:00 +18°C° 0 mm 1 m/s 739 mmHg 82%
23:00 +16°C° 0 mm 1 m/s 739 mmHg 85%

21 Juillet, Mardi

Heure Température Précipitation Vent Pression Humidité
00:00 +16°C° 0 mm 1 m/s 739 mmHg 85%
01:00 +15°C° 0 mm 0 m/s 738 mmHg 86%
02:00 +14°C° 0 mm 0 m/s 738 mmHg 86%
03:00 +14°C° 0 mm 0 m/s 738 mmHg 86%
04:00 +14°C° 0 mm 0 m/s 738 mmHg 86%
05:00 +14°C° 0 mm 0 m/s 738 mmHg 86%
06:00 +16°C° 0 mm 0 m/s 738 mmHg 81%
07:00 +18°C° 0 mm 0 m/s 738 mmHg 76%
08:00 +20°C° 0 mm 0 m/s 738 mmHg 71%
09:00 +23°C° 0 mm 1 m/s 738 mmHg 67%
10:00 +24°C° 0 mm 1 m/s 737 mmHg 62%
11:00 +25°C° 0 mm 2 m/s 737 mmHg 58%
12:00 +25°C° 0.3 mm 3 m/s 737 mmHg 62%
13:00 +25°C° 0.3 mm 4 m/s 737 mmHg 65%
14:00 +25°C° 0.3 mm 5 m/s 737 mmHg 69%
15:00 +23°C° 0.2 mm 5 m/s 737 mmHg 72%
16:00 +21°C° 0.2 mm 5 m/s 737 mmHg 74%
17:00 +20°C° 0.2 mm 5 m/s 737 mmHg 77%
18:00 +19°C° 0 mm 6 m/s 738 mmHg 78%
19:00 +17°C° 0 mm 6 m/s 738 mmHg 79%
20:00 +16°C° 0 mm 6 m/s 738 mmHg 80%
21:00 +15°C° 0 mm 6 m/s 739 mmHg 79%
22:00 +14°C° 0 mm 5 m/s 739 mmHg 78%
23:00 +12°C° 0 mm 5 m/s 739 mmHg 78%
Voir plus